Location: Campestrin
(46.4667°N, 11.7167°E)
Time: 10:07:03
(UTC+00:00)

SPOT 5 - Pass Details

Date: 18 April 2021
Orbit: 623 x 814 km, 98.2° (Epoch: 06 May)

Event Time Altitude Azimuth Distance (km) Brightness Sun altitude
Exits shadow 21:19:30 49° 265° (W) 868 3.3 -27.1°
Drops below altitude 10° 21:23:59 10° 336° (NNW) 2,163 6.3 -27.5°
Sets 21:26:23 0° 342° (NNW) 3,118 7.4 -27.7°
